Miami

Airport
ICAO code: 
KMIA
Summary
ICAO Region: 
NAM
Territory: 
Location: 
Miami, Florida,
Coordinates: 
Aerial View: 
25° 47' 41.428" N, 80° 17' 22.774" W
Metar
Observation
KMIA 290253Z 13004KT 10SM FEW028 SCT250 28/22 A3011 RMK AO2 SLP196 T02780222 53009 $
Station
Miami, Miami International Airport
Date/Time
2022-06-29 02:53:00
Wind direction
130°
Wind speed
04 kts
Lowest cloud amount
few clouds
Temperature
27.8°C
Dew point
22.2°C
Humidity
71%
Weather condition
n/a

Description

International airport serving the city of Miami and southeast Florida, USA.

Climatology

Tropical Monsoon climate (Köppen climate classification Am) - monthly mean temperatures above 18°C in every month of the year and features wet and dry seasons. A tropical monsoon climate typically features less pronounced dry seasons than a tropical savanna climate and see less variance in temperatures during the course of the year. The driest month nearly always occurs at or soon after the "winter" solstice.

Runways

Designator Length Width Surface Rops
08L/26R 2621 46 ASP Yes/Yes
12/30 2851 46 ASP Yes/Yes
08R/26L 3202 61 ASP Yes/Yes
9/27 3962 46 ASP Yes/Yes
Airport map: 
Aerial View: 

SKYbrary Partners:

Safety knowledge contributed by: